SBIRS GEO-2 (USA 241)

Last updated on July 6, 2021, 3:30 p.m. UTC

1 39120U 13011A   21186.86635038  .00000130  00000-0  00000-0 0  9992
2 39120   1.8768   2.1849 0002271 102.8163 151.5591  1.00271610 30417
UTC
Height (km)
Latitude
Longitude
Inclination
Orbital Period
UTC large
Height (km)
Speed (km/s)
/
Latitude / Longitude
Inclination (degrees)
Orbital Period (minutes)
Azimuth
Elevation
Range (km)
Doppler Factor
iOS Compass Heading
iOS Angle

Next 30 passes for location: Hong Kong

Rise time Rise Azimuth (degrees) Set time Set Azimuth (degrees) Duration Max altitude (degrees)

No matching passes for this satellites